Back to catalog

SL-14 DEB

AlivePO
NORAD 45655·DEBRIS·🇷🇺 Russia

Launched Aug 15, 1991 from Plesetsk Cosmodrome

Loading…

Next Passes (next 24 hours)

TLE

FreshSource: Space-Track

Epoch: Sep 14, 2026, 01:06 UTC

1 45655U 91056CZ  26257.04589851 -.00000113  00000-0 -40356-3 0  9996
2 45655  82.5386 127.0551 0103415 223.1697 136.1275 12.99942283312385

Track SL-14 DEB in real time with AllMySat

Download on the App Store